SL-3 R/B

Satellite information

Favourite Embed

Satellite Type and Status

ROCKET BODYIN ORBIT

Key statistics

Satellite SL-3 R/B at a glance.

Uptime

15288

Days in orbit

Revolutions

≈ 14.3

Per day

Orbit

LEO

Low Earth Orbit

Inclination

81.2

Latest

Satellite identification and parameters

Extended collection of information and parameters for SL-3 R/B.

Object identification

Identified? True

Debris? False

Object name: SL-3 R/B

International designator: 1983-109B

Object number (NORAD): 14453

Object ID (CCSDS): 14453

Country: COMMONWEALTH OF INDEPENDENT STATES (CIS)

Current information (Y/N): Y

RCS size: LARGE

Orbital parameters

Period: 101.026 minutes

Inclination: 81.1687 deg

SMA: 7185.384 km

Apoapsis: 882.088 km

Periapsis: 732.411 km

RAAN: 326.3519 deg

Eccentricy: 0.01041534

Argument of periapsis: 20.0994 deg

Mean anomaly: 340.4238 deg

Mean motion: 14.25370464 rev/day

Mean motion (dot): 0.00000179 rev/day2

B* drag term: 0.000066554904 1/REarth

Two-line elements (TLE)

Creation date: Sept. 4, 2025, 10:13 a.m.

Reference frame: TEME

Reference center: EARTH

Epoch: Sept. 4, 2025, 4:49 a.m. UTC

TLE line 0: 0 SL-3 R/B

TLE line 1: 1 14453U 83109B 25247.20097859 .00000179 00000-0 66555-4 0 9996

TLE line 2: 2 14453 81.1687 326.3519 0104153 20.0994 340.4238 14.25370464174807

Live tracking on map

Real-time ground track for satellite SL-3 R/B.

In-orbit conjunctions

A list of the most updated potential collisions computed for object SL-3 R/B.

Target Orbit TCA Probability of collision Miss distance Type
FENGYUN 1C DEB SSO 2025-01-12 02:58:01 0.00013578 486.0 (m) DEBRIS
SL-14 DEB LEO 2024-11-20 06:16:24 0.0001413744 484.0 (m) DEBRIS
FENGYUN 1C DEB SSO 2024-09-27 05:41:55 0.000493891 408.0 (m) DEBRIS
NOAA 16 DEB SSO 2024-09-17 04:33:39 0.0001462293 914.0 (m) DEBRIS
THORAD AGENA D DEB SSO 2024-08-24 06:08:05 0.000110472 322.0 (m) DEBRIS

Associated space launch

Second generation soviet meteorological satellite

SL-3 R/B was lifted into orbit during the mission ‘Vostok 8A92M | Meteor-2 10’, on board a Vostok 8A92M space rocket.

The launch took place on Oct. 28, 1983, 9 a.m. from 16/2.

For more information about the launch, click the button.

Launch to space Vostok 8A92M | Meteor-2 10
Vostok 8A92M | Meteor-2 10

Agency: N/A

Status: Launch Successful

Launch date: Oct. 28, 1983, 9 a.m. UTC

Rocket: Vostok 8A92M

Launch pad: 16/2

Location: Plesetsk Cosmodrome, Russian Federation

...

Latest news about this satellite

There are no fresh news available about this satellite. Check back as we update our databases every day.


Newsletter sign-up

Weekly statistics, charts and insights to help you stay on top of the space industry.